Location: Fort Worth, Tx
(32.7431°N, 97.3695°W)
Time: 01:35:57
(UTC-04:00)

A-11 Canister half - Pass Details

Date: 23 February 2024
Orbit: 1525 x 1683 km, 47.3° (Epoch: 24 April)

Event Time Altitude Azimuth Distance (km) Brightness Sun altitude
Rises 21:50:02 0° 229° (SW) 4,797 12.1 -31.9°
Reaches altitude 10° 21:53:09 10° 230° (SW) 3,792 11.5 -32.5°
Maximum altitude 22:02:47 89° 145° (SE) 1,558 8.8 -34.5°
Enters shadow 22:03:39 77° 54° (NE) 1,587 8.8 -34.7°
